Regional Weather Roundup
Issued by NWS

Home | Current Version | Previous Version | Graphics & Text | Print | Product List | Glossary On
Versions: 1 2 3 4 5 6 7 8 9 10 11 12 13 14 15 16 17 18 19 20 21 22 23 24 25 26 27 28 29 30 31 32 33 34 35 36 37 38 39 40 41 42 43 44 45 46 47 48 49 50
000
ASUS43 KMKX 301000
RWRWI

WISCONSIN REGIONAL WEATHER ROUNDUP
NATIONAL WEATHER SERVICE MILWAUKEE/SULLIVAN WI
400 AM CST FRI JAN 30 2015

NOTE: "FAIR" INDICATES FEW OR NO CLOUDS BELOW 12,000 FEET WITH NO
SIGNIFICANT WEATHER AND/OR OBSTRUCTIONS TO VISIBILITY.

WIZ001-002-006>008-014>016-023>028-301100-
NORTHWEST WISCONSIN

CITY           SKY/WX    TMP DP  RH WIND       PRES   REMARKS
SUPERIOR ARPT  PTCLDY     2  -3  80 NW5       30.55F WCI  -8
ASHLAND        CLOUDY    13   6  74 W6        30.50S WCI   4
HAYWARD        CLOUDY     3  -2  79 CALM      30.49S
SIREN          PTCLDY     0  -3  86 CALM      30.54S
CUMBERLAND     PTCLDY     1  -4  78 N6        30.49S WCI -10
RICE LAKE      PTCLDY     4  -1  81 CALM      30.52F
CHETEK         PTCLDY     3  -1  83 NW3       30.51F
LADYSMITH      CLOUDY     9   3  77 NW5       30.50R WCI   1
EAU CLAIRE     NOT AVBL
MENOMONIE      PTCLDY     7   1  74 N6        30.53F WCI  -3
NEW RICHMOND   PTCLDY     4   0  85 NE3       30.53S
OSCEOLA        PTCLDY     8   3  80 CALM      30.57S
$$

WIZ003>005-009-010-017-018-301100-
NORTH CENTRAL WISCONSIN

CITY           SKY/WX    TMP DP  RH WIND       PRES   REMARKS
MANITOWISH WTR CLOUDY    10   4  77 NW8       30.40R WCI  -2
ARBOR VITAE    CLOUDY    13   6  73 NW7       30.40R WCI   3
WOODRUFF       CLOUDY    13   6  73 NW7       30.40R WCI   3
RHINELANDER    CLOUDY    11   2  67 VRB7      30.39S WCI   0
EAGLE RIVER    CLOUDY    10   2  69 N10       30.38S WCI  -4
LAND O LAKES   CLOUDY    10   3  74 N9        30.39S WCI  -3
PHILLIPS       CLOUDY    10   3  72 N5        30.42S WCI   2
TOMAHAWK       CLOUDY    12   4  69 CALM      30.42R
MEDFORD        CLOUDY    12   5  73 NW7       30.42S WCI   1
MERRILL        CLOUDY    14   4  65 N7        30.42S WCI   4
$$

WIZ029-030-035-036-043>047-301100-
CENTRAL WISCONSIN

CITY           SKY/WX    TMP DP  RH WIND       PRES   REMARKS
WAUSAU         CLOUDY    14   4  64 NW9       30.42R WCI   2
MOSINEE        CLOUDY    14   5  67 NW9       30.43S WCI   2
MARSHFIELD     CLOUDY    13   4  67 NW12      30.45R WCI  -1
STEVENS POINT  CLOUDY    14   3  62 NW7       30.45R WCI   4
WAUPACA        CLOUDY    20   7  57 NW9       30.45R WCI   9
WAUTOMA        NOT AVBL
WISC RAPIDS    CLOUDY    16   5  62 N8        30.47R WCI   5
CAMP DOUGLAS   NOT AVBL
$$

WIZ011>013-019>022-031-037>040-048>050-301100-
NORTHEAST WISCONSIN

CITY           SKY/WX    TMP DP  RH WIND       PRES   REMARKS
ANTIGO         CLOUDY    12   5  71 N8        30.39R WCI   1
SHAWANO        CLOUDY    19   7  58 N9        30.44R WCI   9
OCONTO         CLOUDY    16   4  59 CALM      30.44R
STURGEON BAY   CLOUDY    14   3  62 N9        30.44R WCI   2
GREEN BAY      CLOUDY    18   7  62 N10       30.44R WCI   6
MANITOWOC      NOT AVBL
APPLETON       CLOUDY    19   5  53 NW9       30.43R WCI   9
CLINTONVILLE   CLOUDY    19   5  53 NW7       30.43S WCI  10
OSHKOSH        CLEAR     17   4  56 NW9       30.43R WCI   6
$$

WIZ032>034-041-042-053>061-301100-
SOUTHWEST WISCONSIN

CITY           SKY/WX    TMP DP  RH WIND       PRES   REMARKS
LA CROSSE      CLEAR     13   6  74 NW6       30.54  WCI   4
SPARTA         CLEAR     12   5  73 NW7       30.51S WCI   2
VIROQUA        CLEAR     13   7  77 NW10      30.46R WCI  -1
BOSCOBEL       CLEAR     18   7  62 NW12G18   30.52R WCI   5
PRAIRIE DU CHI CLEAR     19   9  67 NW8       30.52R WCI   8
PLATTEVILLE    CLEAR     18  10  69 NW7       30.45S WCI   9
$$

WIZ056-057-062-063-064-067-068-301100-
SOUTH CENTRAL WISCONSIN

CITY           SKY/WX    TMP DP  RH WIND       PRES   REMARKS
REEDSBURG      CLEAR     15   7  69 NW6       30.46R WCI   7
BARABOO/DELLS  CLEAR     15   6  68 NW6       30.45R WCI   7
LONE ROCK      MOCLDY    19   9  65 N5        30.48R WCI  12
MINERAL POINT  CLEAR     19  10  68 NW6       30.44R WCI  11
MADISON        CLEAR     17   7  64 NW7       30.45R WCI   8
MIDDLETON      CLEAR     17   8  65 NW8       30.45R WCI   7
WATERTOWN      CLEAR     18   7  62 N8        30.42R WCI   7
MONROE         CLEAR     19  10  68 N9        30.42S WCI   9
JANESVILLE     CLEAR     21  12  68 NW10      30.43R WCI  10
$$

WIZ051-052-058>065-066-070>072-301100-
SOUTHEAST WISCONSIN

CITY           SKY/WX    TMP DP  RH WIND       PRES   REMARKS
MILWAUKEE      PTCLDY    21   8  57 NW12G22   30.42R WCI   9
WAUKESHA       CLEAR     18   9  68 NW9       30.42R WCI   6
MILWAUKEE/TIMM CLEAR     19  10  68 NW9       30.43R WCI   9
RACINE         CLEAR     22  10  60 NW14      30.43R WCI   9
BURLINGTON     CLOUDY    21   7  55 N5        30.42R WCI  15
KENOSHA        CLEAR     20  10  65 NW12      30.42R WCI   8
FOND DU LAC    CLEAR     13   3  64 NW9       30.43R WCI   1
SHEBOYGAN      CLOUDY    18   8  65 N9        30.42R WCI   7
WEST BEND      CLEAR     18   9  68 NW6       30.41R WCI   9
JUNEAU         CLEAR     16   6  64 NW6       30.44R WCI   7
$$

LSZ147-162-301100-
LAKE SUPERIOR

STATION/POSITION TIME  TEMP    WIND        PRES    WAVE
                       AIR SEA DIR/SP/G            HT/PER
                 (UTC) (F)     (DEG/KT/KT) (MB)    (FT/S)
DEVILS ISLAND    0900   12     310/  9/ 11 1034.9S
PORT WING        0940   13     270/  8/ 14 1033.9R
SAXON HARBOR     0940   15     250/  1/  7 1032.5S
$$

LMZ867-665-643>646-301100-
LAKE MICHIGAN

STATION/POSITION TIME  TEMP    WIND        PRES    WAVE
                       AIR SEA DIR/SP/G            HT/PER
                 (UTC) (F)     (DEG/KT/KT) (MB)    (FT/S)
NORTHPORT PIER   0909   17     340/ 22/ 27 1029.5R
SISTER BAY       0913   16     340/ 21/ 24   N/A
KEWAUNEE LAKESHO 0900   16     350/ 10/ 15 1029.0R
SHEBOYGAN LAKESH 0900   20     340/ 16/ 18 1031.1R
PORT WASHINGTON  0900   22      30/  9/ 11 1030.5
MILWAUKEE LAKESH 0900   24     340/ 10/ 14   N/A
KENOSHA   LAKESH 0900   24     320/ 12/ 16 1029.1R
$$

TC  - TEMPERATURE IN CELSIUS
VSB - VISIBILITY IN STATUTE MILES
WCI - WIND CHILL INDEX
HX  - HEAT INDEX




USA.gov is the U.S. government's official web portal to all federal, state and local government web resources and services.